Tracking 19706 objects as of 15-Jun-2019
HD Live streaming from Space Station
objects crossing your sky now

CBERS 1 DEB


CBERS 1 DEB is no longer on orbit


NORAD ID: 31593
Int'l Code: 1999-057PQ
Perigee: N/A
Apogee: N/A
Inclination: N/A
Period: N/A
Semi major axis: N/A
RCS: N/A
Launch date: October 14, 1999
Source: China/Brazil (CHBZ)
Launch site: Taiyaun Space Center, China (TSC)
Decay date: 2014-12-11

Note: This is SATELLITE DEBRIS
aabbcc
Your satellite tracking list
Your tracking list is empty




NASA's NSSDC Master Catalog

Two Line Element Set (TLE):
1 31593U 99057PQ  14332.85129022  .00886341  00000-0  19932-1 0  9998
2 31593 098.1911 344.1781 0010837 094.3185 266.7778 15.40762169405169
Source of the keplerian elements: AFSPC